Weather History for KY63 - October, 2013

Change the Weather History Date:

Saturday, October 5, 2013

  Actual Average (KFFM) Record (KFFM)
Temperature  
Mean Temperature 48 °F -  
Max Temperature 52 °F 61 °F 93 °F (1963)
Min Temperature 46 °F 38 °F 24 °F (1988)
Degree Days  
Heating Degree Days 16    
Moisture  
Dew Point 47 °F    
Average Humidity 93    
Maximum Humidity 99    
Minimum Humidity 70    
Precipitation  
Precipitation 0.04 in - - ()
Sea Level Pressure  
Sea Level Pressure 29.77 in    
Wind  
Wind Speed 14 mph (East)    
Max Wind Speed 24 mph    
Max Gust Speed 32 mph    
Visibility 7 miles    
Events Rain , Thunderstorm    
Averages and records for this station are not official NWS values.
T = Trace of Precipitation, MM = Missing Value Source: NWS Daily Summary

Daily Weather History Graph

Daily Weather History Graph

Search for Another Location

Airport or City:

Trip Planner

Search our weather history database for the weather conditions in past years. The results will help you decide how hot, cold, wet, or windy it might be!

Date:

Astronomy

Oct. 05, 2013 Rise Set
Actual Time 7:27 AM CDT 6:55 PM CDT
Civil Twilight 6:58 AM CDT 7:25 PM CDT
Nautical Twilight 6:23 AM CDT 8:00 PM CDT
Astronomical Twilight 5:48 AM CDT 8:35 PM CDT
Moon 8:12 AM CDT (10/5) 7:10 PM CDT (10/5)
Length of Visible Light 12h 27m
Length of Day
11h 27m
New Moon, 1% of the Moon is Illuminated
Oct 5
New Moon
Oct 11
First Quarter
Oct 18
Full
Oct 26
Last Quarter
Nov 3
New

Hourly Weather History & Observations

Time (CDT) Temp. Windchill Dew Point Humidity Pressure Visibility Wind Dir Wind Speed Gust Speed Precip Events Conditions
12:15 AM 49.5 °F - 48.2 °F 95% 29.82 in 5.0 mi East 17.3 mph 29.9 mph 0.02 in Rain Light Rain
12:34 AM 49.3 °F - 48.0 °F 95% 29.83 in 10.0 mi East 17.3 mph 23.0 mph 0.03 in   Overcast
12:54 AM 49.5 °F - 47.7 °F 94% 29.83 in 10.0 mi East 16.1 mph 24.2 mph 0.03 in Thunderstorm Overcast
1:15 AM 49.5 °F - 47.7 °F 94% 29.83 in 7.0 mi ENE 17.3 mph 24.2 mph N/A   Overcast
1:34 AM 49.3 °F - 48.0 °F 95% 29.82 in 4.0 mi ENE 18.4 mph 23.0 mph N/A Rain Light Rain
1:55 AM 49.3 °F - 48.2 °F 96% 29.81 in 4.0 mi ENE 18.4 mph 28.8 mph N/A Rain Light Rain
2:14 AM 49.5 °F - 48.4 °F 96% 29.79 in 5.0 mi ENE 18.4 mph 27.6 mph N/A   Overcast
2:34 AM 49.5 °F - 48.4 °F 96% 29.78 in 4.0 mi ENE 19.6 mph 28.8 mph N/A   Overcast
2:54 AM 49.5 °F - 48.6 °F 97% 29.78 in 3.0 mi ENE 18.4 mph 26.5 mph N/A Rain Light Rain
3:14 AM 49.5 °F - 48.6 °F 97% 29.77 in 4.0 mi East 20.7 mph 27.6 mph N/A   Overcast
3:35 AM 49.6 °F - 48.6 °F 96% 29.75 in 7.0 mi East 24.2 mph 31.1 mph N/A   Overcast
3:54 AM 49.6 °F - 48.6 °F 96% 29.74 in 5.0 mi East 17.3 mph 31.1 mph N/A   Overcast
4:14 AM 50.0 °F - 48.6 °F 95% 29.74 in 7.0 mi East 18.4 mph 32.2 mph N/A   Overcast
4:35 AM 50.0 °F - 48.6 °F 95% 29.73 in 10.0 mi East 18.4 mph 28.8 mph N/A   Overcast
4:54 AM 50.2 °F - 48.7 °F 95% 29.72 in 10.0 mi East 21.9 mph 31.1 mph N/A   Overcast
5:15 AM 50.4 °F - 49.1 °F 95% 29.73 in 10.0 mi East 20.7 mph 31.1 mph N/A   Overcast
5:34 AM 50.4 °F - 49.1 °F 95% 29.72 in 7.0 mi East 23.0 mph 32.2 mph N/A   Overcast
5:55 AM 50.4 °F - 49.3 °F 96% 29.72 in 4.0 mi East 19.6 mph 26.5 mph N/A   Overcast
6:15 AM 50.2 °F - 49.3 °F 97% 29.72 in 4.0 mi East 21.9 mph 28.8 mph N/A   Overcast
6:34 AM 50.5 °F - 49.8 °F 97% 29.73 in 4.0 mi East 15.0 mph 25.3 mph N/A   Overcast
6:55 AM 50.5 °F - 50.0 °F 98% 29.73 in 3.0 mi East 20.7 mph 26.5 mph N/A   Overcast
7:14 AM 50.9 °F - 50.0 °F 97% 29.73 in 3.0 mi East 17.3 mph 24.2 mph N/A Rain Light Rain
7:35 AM 50.9 °F - 50.2 °F 97% 29.74 in 3.0 mi East 18.4 mph 24.2 mph N/A Rain Light Rain
7:54 AM 51.1 °F - 50.2 °F 97% 29.74 in 2.0 mi East 15.0 mph 23.0 mph N/A Rain Light Rain
8:14 AM 51.1 °F - 50.2 °F 97% 29.75 in 2.5 mi ESE 12.7 mph 19.6 mph N/A Rain Light Rain
8:35 AM 51.1 °F - 50.4 °F 97% 29.76 in 1.8 mi ESE 13.8 mph 20.7 mph N/A Rain Light Rain
8:54 AM 51.3 °F - 50.5 °F 97% 29.75 in 1.8 mi East 11.5 mph - N/A Rain Light Rain
9:15 AM 49.5 °F - 48.9 °F 98% 29.76 in 3.0 mi SSE 5.8 mph - N/A   Drizzle
9:34 AM 49.1 °F - 48.4 °F 97% 29.76 in 4.0 mi SE 8.1 mph - N/A   Overcast
9:55 AM 48.4 °F - 47.8 °F 98% 29.77 in 3.0 mi SE 9.2 mph - N/A   Overcast
10:15 AM 46.2 °F 42.2 °F 45.7 °F 98% 29.77 in 3.0 mi SE 8.1 mph - N/A   Overcast
10:34 AM 46.4 °F 42.4 °F 45.9 °F 98% 29.76 in 3.0 mi ESE 8.1 mph - N/A   Overcast
10:55 AM 46.8 °F - 46.2 °F 98% 29.76 in 4.0 mi SE 8.1 mph - N/A   Overcast
11:14 AM 47.7 °F - 47.3 °F 99% 29.76 in 5.0 mi SE 6.9 mph - N/A   Overcast
11:34 AM 48.2 °F - 47.5 °F 97% 29.76 in 7.0 mi SSE 9.2 mph - N/A   Overcast
11:55 AM 46.9 °F - 46.4 °F 98% 29.76 in 7.0 mi South 9.2 mph - N/A   Overcast
12:14 PM 47.3 °F - 46.8 °F 98% 29.76 in 4.0 mi SSE 11.5 mph - N/A   Overcast
12:35 PM 46.4 °F 41.1 °F 45.7 °F 97% 29.76 in 2.0 mi South 11.5 mph - N/A   Overcast
12:54 PM 46.6 °F - 46.4 °F 99% 29.77 in 4.0 mi South 8.1 mph - N/A   Overcast
1:15 PM 47.7 °F - 47.3 °F 99% 29.76 in 4.0 mi SE 10.4 mph - N/A   Overcast
1:35 PM 49.1 °F - 47.5 °F 94% 29.75 in 10.0 mi SE 6.9 mph - N/A   Overcast
1:55 PM 49.8 °F - 47.3 °F 91% 29.75 in 10.0 mi SSE 6.9 mph - N/A   Overcast
2:14 PM 50.4 °F - 47.8 °F 91% 29.76 in 10.0 mi SW 3.5 mph - N/A   Overcast
2:35 PM 50.2 °F - 47.1 °F 89% 29.76 in 10.0 mi SW 5.8 mph - N/A   Overcast
2:55 PM 50.0 °F - 45.0 °F 83% 29.76 in 10.0 mi South 9.2 mph - N/A   Overcast
3:14 PM 50.7 °F - 44.4 °F 79% 29.76 in 10.0 mi South 6.9 mph - N/A   Overcast
3:35 PM 51.8 °F - 43.5 °F 73% 29.76 in 10.0 mi South 8.1 mph - N/A   Overcast
3:55 PM 51.4 °F - 43.2 °F 73% 29.76 in 10.0 mi South 6.9 mph - N/A   Overcast
4:15 PM 51.3 °F - 42.3 °F 71% 29.76 in 10.0 mi SSW 6.9 mph - N/A   Mostly Cloudy
4:35 PM 50.4 °F - 41.9 °F 73% 29.76 in 10.0 mi South 4.6 mph - N/A   Overcast
4:54 PM 51.1 °F - 41.7 °F 70% 29.76 in 10.0 mi South 4.6 mph - N/A   Overcast
5:15 PM 50.4 °F - 41.5 °F 72% 29.77 in 10.0 mi South 4.6 mph - N/A   Overcast
5:34 PM 49.8 °F - 41.4 °F 73% 29.78 in 10.0 mi WSW 5.8 mph - N/A   Overcast
5:55 PM 49.5 °F - 41.9 °F 75% 29.78 in 10.0 mi Calm Calm - N/A   Overcast
6:15 PM 49.5 °F - 41.7 °F 75% 29.78 in 10.0 mi Calm Calm - N/A   Overcast
6:35 PM 48.0 °F - 45.3 °F 90% 29.78 in 10.0 mi North 6.9 mph - N/A   Overcast
6:55 PM 47.5 °F - 45.3 °F 92% 29.77 in 10.0 mi North 6.9 mph - N/A Rain Rain
7:15 PM 46.8 °F - 45.5 °F 95% 29.77 in 10.0 mi North 5.8 mph - N/A   Overcast
7:35 PM 46.6 °F - 45.5 °F 96% 29.77 in 10.0 mi NNE 4.6 mph - N/A   Drizzle
7:55 PM 46.4 °F 44.3 °F 45.3 °F 96% 29.77 in 10.0 mi North 4.6 mph - 0.01 in Rain Light Rain
8:15 PM 46.4 °F 44.3 °F 45.5 °F 97% 29.78 in 10.0 mi North 4.6 mph - N/A Rain Light Rain
8:35 PM 46.0 °F 43.1 °F 45.1 °F 97% 29.77 in 10.0 mi North 5.8 mph - N/A   Scattered Clouds
8:54 PM 46.4 °F 45.2 °F 45.5 °F 97% 29.79 in 10.0 mi North 3.5 mph - N/A   Mostly Cloudy
9:15 PM 46.4 °F 45.2 °F 45.7 °F 97% 29.79 in 10.0 mi North 3.5 mph - N/A Rain Light Rain
9:34 PM 46.4 °F 44.3 °F 45.7 °F 97% 29.79 in 10.0 mi North 4.6 mph - N/A   Light Drizzle
9:55 PM 46.4 °F 45.2 °F 45.5 °F 97% 29.79 in 10.0 mi North 3.5 mph - N/A   Overcast
10:15 PM 46.6 °F - 45.0 °F 94% 29.79 in 10.0 mi NNW 4.6 mph - N/A   Overcast
10:35 PM 46.6 °F - 45.5 °F 96% 29.79 in 10.0 mi NW 6.9 mph - N/A   Overcast
10:55 PM 46.6 °F - 45.7 °F 97% 29.78 in 10.0 mi NW 5.8 mph - N/A   Overcast
11:15 PM 46.6 °F - 45.9 °F 97% 29.78 in 10.0 mi NW 5.8 mph - N/A   Overcast
11:35 PM 46.4 °F 43.5 °F 46.2 °F 99% 29.78 in 1.8 mi NW 5.8 mph - N/A   Overcast
11:55 PM 46.6 °F - 46.4 °F 99% 29.77 in 3.0 mi NW 4.6 mph - N/A   Overcast